GW4151 Weather Reports


Display with metric or nautical units.
time (UTC)temp
F
wind
direction
speed
MPH
gust
MPH
rain 1hr
in
rain 24hr
in
rain mn
in
humidity
%
barometer
mb
20260508074418 37 176 0.0 0.0 0.00 0.00 0.00 87 991.1
20260508072916 37 165 0.0 0.0 0.00 0.00 0.00 87 991.1
20260508071413 37 191 0.0 0.0 0.00 0.00 0.00 85 991.3
20260508065912 38 161 0.0 0.0 0.00 0.00 0.00 84 991.6
20260508064410 39 162 0.0 0.0 0.00 0.00 0.00 82 991.7
20260508062908 39 162 0.0 0.0 0.00 0.00 0.00 83 991.9
20260508061407 39 162 0.0 0.0 0.00 0.00 0.00 81 991.7
20260508055906 39 163 0.0 0.0 0.00 0.00 0.00 82 991.8
20260508054404 39 174 0.0 0.0 0.00 0.00 0.00 85 992.0
20260508052901 38 194 0.0 0.0 0.00 0.00 0.00 86 991.8
20260508051356 39 198 0.0 0.0 0.00 0.00 0.00 85 991.8
20260508045851 39 124 1.0 2.0 0.00 0.00 0.00 81 992.0
20260508044348 39 192 0.0 0.0 0.00 0.00 0.00 81 991.9
20260508042844 40 164 0.0 0.0 0.00 0.00 0.00 80 991.6
20260508041341 40 172 0.0 0.0 0.00 0.00 0.00 79 991.6
20260508035838 41 172 0.0 0.0 0.00 0.00 0.00 78 991.5
20260508034335 41 155 0.0 0.0 0.00 0.00 0.00 77 991.4
20260508032833 42 160 0.0 0.0 0.00 0.00 0.00 75 991.5
20260508031330 42 191 0.0 0.0 0.00 0.00 0.00 76 991.5
20260508025826 43 191 0.0 0.0 0.00 0.00 0.00 74 991.5
20260508024322 44 192 0.0 0.0 0.00 0.00 0.00 73 991.5
20260508022818 44 184 0.0 0.0 0.00 0.00 0.00 72 991.5
20260508021313 43 185 0.0 0.0 0.00 0.00 0.00 72 991.2
20260508015810 44 168 0.0 0.0 0.00 0.00 0.00 70 991.2
20260508014307 45 167 0.0 0.0 0.00 0.00 0.00 68 991.0
20260508012803 46 198 0.0 0.0 0.00 0.00 0.00 63 990.9
20260508011301 47 165 0.0 0.0 0.00 0.00 0.00 62 990.6
20260508005758 50 195 0.0 2.0 0.00 0.00 0.00 57 990.7
20260508004258 50 209 0.0 1.0 0.00 0.00 0.00 52 990.5
20260508002754 52 197 0.0 2.0 0.00 0.00 0.00 49 990.3
20260508001249 52 216 2.0 3.0 0.00 0.00 0.00 47 990.5
20260507235745 54 263 1.0 2.0 0.00 0.00 0.00 46 990.3
20260507234242 54 264 5.0 7.0 0.00 0.00 0.00 44 990.4
20260507232739 54 273 4.0 7.0 0.00 0.00 0.00 44 990.6
20260507231235 55 266 4.0 6.0 0.00 0.00 0.00 42 990.7
20260507225734 54 197 2.0 6.0 0.00 0.00 0.00 44 990.7
20260507224229 54 167 4.0 7.0 0.00 0.00 0.00 44 991.2
20260507222725 53 203 1.0 4.0 0.00 0.00 0.00 46 991.1
20260507221220 53 259 2.0 6.0 0.00 0.00 0.00 44 991.2
20260507215716 54 298 2.0 6.0 0.00 0.00 0.00 43 991.2
20260507214214 53 285 2.0 8.0 0.00 0.00 0.00 44 991.2
20260507212709 55 153 5.0 8.0 0.00 0.00 0.00 42 991.3
20260507211209 54 230 5.0 9.0 0.00 0.00 0.00 42 991.3
20260507205706 56 149 3.0 6.0 0.00 0.00 0.00 43 991.5
20260507204203 55 230 2.0 3.0 0.00 0.00 0.00 45 991.7
20260507202659 53 226 3.0 7.0 0.00 0.00 0.00 43 992.1
20260507201159 53 267 6.0 8.0 0.00 0.00 0.00 43 992.4
20260507195654 53 275 3.0 6.0 0.00 0.00 0.00 46 992.8
20260507194150 51 294 4.0 8.0 0.00 0.00 0.00 45 992.8
20260507192646 52 209 4.0 9.0 0.00 0.00 0.00 46 993.0
20260507191142 51 246 2.0 7.0 0.00 0.00 0.00 47 993.1
20260507185641 51 234 6.0 8.0 0.00 0.00 0.00 47 993.0
20260507184139 50 270 9.0 10.0 0.00 0.00 0.00 46 993.2
20260507182635 51 173 5.0 7.0 0.00 0.00 0.00 47 993.4
20260507181130 51 262 4.0 8.0 0.00 0.00 0.00 43 993.3
20260507175625 51 275 8.0 9.0 0.00 0.00 0.00 43 993.2
20260507174124 50 285 5.0 9.0 0.00 0.00 0.00 46 993.4
20260507172619 49 276 4.0 4.0 0.00 0.00 0.00 46 993.3
20260507171115 49 235 8.0 10.0 0.00 0.00 0.00 45 993.7
20260507165610 48 274 7.0 11.0 0.00 0.00 0.00 47 994.1
20260507164106 49 227 6.0 9.0 0.00 0.00 0.00 47 994.3
20260507162601 47 260 7.0 9.0 0.00 0.00 0.00 49 994.4
20260507161057 48 240 5.0 14.0 0.00 0.00 0.00 48 994.6
20260507155557 49 280 9.0 13.0 0.00 0.00 0.00 49 994.8
20260507154054 47 309 7.0 11.0 0.00 0.00 0.00 52 994.9
20260507152549 48 300 7.0 10.0 0.00 0.00 0.00 52 994.6
20260507151045 47 215 6.0 13.0 0.00 0.00 0.00 55 994.6
20260507145545 47 239 6.0 10.0 0.00 0.00 0.00 56 994.2
20260507144044 47 256 4.0 9.0 0.00 0.00 0.00 56 994.6
20260507142538 46 310 8.0 14.0 0.00 0.00 0.00 59 994.6
20260507141034 47 307 8.0 14.0 0.00 0.00 0.00 58 994.6
20260507135531 47 247 4.0 9.0 0.00 0.00 0.00 57 994.7
20260507134026 46 240 5.0 9.0 0.00 0.00 0.00 52 994.4
20260507132522 46 274 4.0 11.0 0.00 0.00 0.00 56 994.5
20260507131019 45 220 4.0 9.0 0.00 0.00 0.00 60 994.2
20260507125518 45 266 7.0 8.0 0.00 0.00 0.00 63 994.1
20260507124015 44 237 3.0 7.0 0.00 0.00 0.00 66 994.1
20260507122510 44 248 4.0 6.0 0.00 0.00 0.00 68 993.9
20260507121009 43 265 3.0 6.0 0.00 0.00 0.00 71 994.0
20260507115505 42 246 4.0 6.0 0.00 0.00 0.00 74 993.9
20260507114000 42 266 4.0 4.0 0.00 0.00 0.00 75 993.7
20260507112458 41 190 1.0 2.0 0.00 0.00 0.00 78 993.7
20260507110953 39 232 1.0 3.0 0.00 0.00 0.00 80 993.5
20260507105449 38 239 1.0 2.0 0.00 0.00 0.00 81 993.4
20260507103949 38 219 1.0 2.0 0.00 0.00 0.00 80 993.2
20260507102445 38 230 0.0 4.0 0.00 0.00 0.00 79 993.2
20260507100946 39 250 1.0 3.0 0.00 0.00 0.00 79 993.1
20260507095445 39 254 3.0 3.0 0.00 0.00 0.00 79 993.1
20260507093940 39 278 0.0 2.0 0.00 0.00 0.00 79 992.9
20260507092438 39 257 0.0 2.0 0.00 0.00 0.00 79 993.1
20260507090933 39 259 2.0 2.0 0.00 0.00 0.00 78 993.1
20260507085429 40 247 2.0 4.0 0.00 0.00 0.00 77 993.3
20260507083926 41 254 2.0 4.0 0.00 0.00 0.00 75 993.5
20260507082426 41 199 2.0 4.0 0.00 0.00 0.00 74 993.3
20260507080923 41 265 2.0 3.0 0.00 0.00 0.00 73 993.3
20260507075422 42 244 2.0 4.0 0.00 0.00 0.00 73 993.3